Location: Waco, TX
(31.5480°N, 97.1670°W)
Time: 09:12:55
(UTC-05:00)

ISS - Pass Details

Date: 21 October 2018
Orbit: 403 x 408 km, 51.6° (Epoch: 16 October)

Event Time Altitude Azimuth Distance (km) Brightness Sun altitude
Rises 16:59:58 0° 308° (NW) 2,328 0.3 21.1°
Reaches altitude 10° 17:02:06 10° 301° (WNW) 1,465 -0.5 20.7°
Maximum altitude 17:05:14 42° 229° (SW) 592 -1.5 20.1°
Drops below altitude 10° 17:08:21 10° 157° (SSE) 1,457 -0.9 19.5°
Sets 17:10:28 0° 150° (SSE) 2,313 0.0 19.1°
